Погода в Томске

Погода в Томске : погода сейчас, прогноз погоды и архив. Всё, что Вы хотите узнать о погоде в Томске!

Хотите узнать прогноз погоды в Томске? Тогда Вам сюда: Погода в Томске

Поиск расширенной информации на нашем сайте:

Другие новости

Новости СМИ2

Главная страница сайта

Новости сайта

02.10.2013

Напоминаем, что на нашем новом сайте вы можете получить высокодетализированные прогнозы погоды по пунктам России, СНГ и мира (включающие важные для авиации метеовеличины, такие как направление и скорость ветра, видимость, явления погоды, количество и форма облачности, нижняя и верхняя граница облачности), а также ознакомиться с разнообразными материалами по авиационной метеорологии и подборкой полезных ссылок на эту тему.

Сайт Метеоцентр.Азия посвящён разработке технологий оптимизации авиаметеорологического обслуживания, включая проектирование и перспективное создание нескольких автоматизированных авиаметеорологических систем:
- система выпуска высокодетальных прогностических карт явлений погоды для нижнего воздушного пространства по России и ближнему зарубежью;
- система верификации прогнозов TAF (выпускаемых синоптиками официальных АМСГ РФ и ближнего зарубежья) и AUTOTAF (выпускаемых сайтом Метеоцентр.Азия) - выявление ошибок, онлайн-сопоставление с фактической погодой METAR, автоматическое внесение коррективов в прогнозы при резком отклонении фактической погоды от прогноза, подсчёт оправдываемости прогнозов по элементам и в целом;
- система обработки, анализа и отображения авиаметеорологической информации для применения провайдерами метеорологической информации.

Рекомендуем: На сайте sunny-nn.ru солнечный жилой комплекс.

Погода в Томске - сегодня

Время (UTC), дата Ветер
(°,м/с) 
Видим.   Явления Облачность Т
(°С)
Тd
(°С)
f(%) Тe
(°С)
Pmin
(гПа)
dP
(гПа)
Po
(мм)
O2
(г/м3)
Тmin Tmax R s Состояние
почвы
03 18.02.17 210 (ЮЗ) 20000 м    ясно 
-20 -22.6 80 -20  1025.9  1.1  755  330  -21.3         
06 18.02.17 180 (Ю) 20000 м    ясно 
-10.4 -16 63 -10  1025.4  0.2  755  318           
09 18.02.17 190 (Ю) 20000 м    ясно 
-7.4 -14.8 55 -7  1024.9  -0.2  755  314           
12 18.02.17 тихо ()   20000 м    ясно 
-11.9 -15.7 73 -12  1025  -0.3  755  319    -7       
15 18.02.17 тихо ()   20000 м    ясно 
-15.2 -17.3 84 -15  1024.9  -0.3  755  323           
18 18.02.17 тихо ()   20000 м    ясно 
-17.1 -19.2 84 -17  1024.7  -0.3  754  326           
21 18.02.17 тихо ()   20000 м    ясно 
-18.2 -20.3 84 -18  1024.4  -0.4  754  327           
00 19.02.17 тихо ()   20000 м    ясно 
-20 -22.6 80 -20  1023.5  -1  753  329  -20      85  равномерный
сухой снег
100% 
03 19.02.17 тихо ()   20000 м    1/0 верхняя 
[Ci fib]
-19.6 -22.2 80 -20  1023.4  -0.1  753  329  -21.6         
06 19.02.17 тихо ()   20000 м    10/0 верхняя 
[Cs]
-11.3 -15.1 73 -11  1020.2  -2.5  751  317           
09 19.02.17 тихо ()   20000 м    10/0 верхняя 
[Cs]
-12 -15.9 73 -12  1019.3  -1  751  318           
12 19.02.17 тихо ()   20000 м    10/0 средняя 
[As op]
-12.8 -16 77 -13  1017.9  -1.4  750  318    -11       
15 19.02.17 тихо ()   20000 м    10/0 средняя 
[As op]
-12.9 -15.6 80 -13  1017.5  -0.4  749  318           
18 19.02.17 тихо ()   10 км  слаб. снег  10/8 210 м средняя 
[Frnb|As op]
-13.8 -15.6 86 -14  1018.4  0.8  750  320           
21 19.02.17 тихо ()   20000 м  слаб. снег  10/6 300 м средняя 
[Frnb|As op]
-13.9 -15.8 86 -14  1020.3  1.9  751  320           
00 20.02.17 150 (ЮВ) 20000 м  слаб. снег  10/8 270 м средняя 
[Frnb|As op]
-14.1 -16.5 82 -14  1021.1  0.7  752  321  -14.6    86  равномерный
сухой снег
100% 
03 20.02.17 150 (ЮВ) 20000 м  слаб. снег  10/0 средняя, верхняя 
[As op|Ci fib]
-13.9 -17.6 74 -14  1019.7  -1.3  751  320           
06 20.02.17 150 (ЮВ) 20000 м  слаб. снег  10/4 330 м средняя, верхняя 
[Frnb|As op|Ci fib]
-9.9 -13.5 75 -12  1016.2  -3.2  749  314           
09 20.02.17 160 (Ю) 2{10}  2000 м  слаб. снег  10/9 300 м средняя 
[Frnb|As op]
-8.2 -10 87 -10  1012.9  -3  746  311           
12 20.02.17 160 (Ю) 2{10}  20000 м  слаб. снег  10/9 330 м средняя 
[Frnb|As op]
-8.7 -10.6 86 -10  1011.9  -1.1  745  311    -8.1  0.3     
15 20.02.17 160 (Ю) 20000 м  слаб. снег  10/10 300 м 
[Frnb|Ns]
-8.2 -9.6 90 -8  1012.5  0.6  746  311           
18 20.02.17 200 (Ю) 20000 м  слаб. снег  10/9 300 м средняя 
[Frnb|As op]
-8.4 -10.1 88 -11  1015.2  2.7  748  312           
21 20.02.17 190 (Ю) 20000 м  слаб. снег  10/9 300 м средняя 
[Frnb|As op]
-10.4 -12.5 85 -10  1017.7  2.3  750  315           
00 21.02.17 180 (Ю) 20000 м  {снег}  10/6 600 м средняя 
[Sc|As op]
-10.1 -13 79 -10  1017.9  0.2  750  315  -10.8    0.3  87  равномерный
сухой снег
100% 
03 21.02.17 160 (Ю) 10 км  слаб. снег  10/8 330 м средняя 
[Frnb|As op]
-8.8 -11 84 -9  1015.2  -2.6  748  312           
Время (UTC), дата Ветер
(°,м/с) 
Видим.   Явления Облачность Т
(°С)
Тd
(°С)
f(%) Тe
(°С)
Pmin
(гПа)
dP
(гПа)
Po
(мм)
O2
(г/м3)
Тmin Tmax R s Состояние
почвы

Для получения пояснительной информации подведите курсор к названию столбца.

ПОГОДА в Томске - архив

Всё, что Вы хотите узнать о погоде в Томске - удобно и подробно!

Выберите нужную дату (начиная с 1 января 2015* года) и нажмите кнопку "Найти".
Будут отображены архивные сводки погоды по пункту Томск, начиная с указанной даты.


Отображать данные в формате CSV (для использования в таблицах Excel)


Внимание! Наш архив погоды предназначен исключительно для личного некоммерческого использования в познавательных целях. Если Вам необходимы официальные справки о состоянии погоды (для производственных, юридических, коммерческих и т.п. целей), обращайтесь в органы Росгидромета.

*Примечание: данная дата относится к архиву по метеостанциям СССР (Россия, СНГ, Балтия).
Архив по метеостанциям Зарубежной Европы и Азии (кроме Китая) хранится 10 дней, по другим регионам земного шара (Китай, Африка, Америка, Австралия, Океания) - 1 день.

Томск - район местоположения метеостанции


Название, широта, долгота, высота метеостанции:
Томск 56.5°ш. 84.9°д. 139 м над ур. моря [Российская Федерация]

Дополнительная информация

В oтличие oт бoльшинства пoгoдных сайтoв мы публикуем пoдрoбную метеoинфoрмацию в детальнoм прoфессиoнальнoм фoрмате.

Характеристики температуры и влажнoсти вoздуха измеряются на высoте 2 м в тени вдали oт зданий и деревьев.
Скoрoсть ветра измеряется на высoте 10 м (на урoвне рoста челoвека скoрoсть ветра ниже в 1.5-2 раза). Если метеoстанция нахoдится в гoрoде или в лесу, тo скoрoсть ветра занижена на 2-4 м/с пo сравнению с oткрытым местoм. Скoрoсть ветра над акватoриями крупных рек и oзёр, а также на вершинах хoлмoв на 2-5 м/с выше, чем в oбычных услoвиях.
Атмoсфернoе давление в разных тoчках местнoсти мoжет значительнo oтличаться oт давления на метеoстанции, в зависимoсти oт услoвий рельефа (при пoдъёме на 10 м давление пoнижается примернo на 1 мм рт.ст.).